TimeCET,TemperatureF,Dew PointF,Humidity,Sea Level PressureIn,VisibilityMPH,Wind Direction,Wind SpeedMPH,Gust SpeedMPH,PrecipitationIn,Events,Conditions,WindDirDegrees,DateUTC
12:25 AM,33.8,32.0,93,29.92,-9999.0,ESE,4.6,-,N/A,,Mist,120,2012-11-16 23:25:00
12:55 AM,33.8,32.0,93,29.92,-9999.0,SE,3.5,-,N/A,,Mist,130,2012-11-16 23:55:00
1:25 AM,33.8,33.8,100,29.92,-9999.0,SE,3.5,-,N/A,,Mist,140,2012-11-17 00:25:00
1:33 AM,33.8,33.8,100,29.92,-9999.0,SE,4.6,-,N/A,,Mist,140,2012-11-17 00:33:00
1:37 AM,33.8,33.8,100,29.92,2.2,SSE,3.5,-,N/A,,Mist,150,2012-11-17 00:37:00
1:55 AM,33.8,32.0,93,29.92,-9999.0,SSE,3.5,-,N/A,,Mist,160,2012-11-17 00:55:00
2:18 AM,33.8,32.0,93,29.89,-9999.0,SSE,3.5,-,N/A,,Mist,160,2012-11-17 01:18:00
2:25 AM,33.8,32.0,93,29.89,-9999.0,South,3.5,-,N/A,,Mist,170,2012-11-17 01:25:00
2:55 AM,33.8,33.8,100,29.89,-9999.0,SSE,4.6,-,N/A,,Mist,150,2012-11-17 01:55:00
3:25 AM,33.8,33.8,100,29.89,-9999.0,SE,6.9,-,N/A,,Mist,140,2012-11-17 02:25:00
3:55 AM,33.8,33.8,100,29.86,-9999.0,SE,4.6,-,N/A,,Mist,130,2012-11-17 02:55:00
4:02 AM,33.8,32.0,93,29.86,-9999.0,SE,3.5,-,N/A,,Mist,130,2012-11-17 03:02:00
4:06 AM,33.8,32.0,93,29.86,-9999.0,SE,4.6,-,N/A,,Mist,130,2012-11-17 03:06:00
4:10 AM,33.8,33.8,100,29.86,-9999.0,SE,4.6,-,N/A,,Mist,140,2012-11-17 03:10:00
4:25 AM,35.6,33.8,93,29.86,-9999.0,SE,4.6,-,N/A,,Mist,140,2012-11-17 03:25:00
4:55 AM,33.8,32.0,93,29.86,-9999.0,ESE,4.6,-,N/A,,Mist,120,2012-11-17 03:55:00
5:25 AM,33.8,32.0,93,29.83,-9999.0,ESE,6.9,-,N/A,,Partly Cloudy,120,2012-11-17 04:25:00
5:39 AM,33.8,33.8,100,29.83,3.1,SE,5.8,-,N/A,,Mist,130,2012-11-17 04:39:00
5:43 AM,33.8,32.0,93,29.83,-9999.0,SE,4.6,-,N/A,,Mist,140,2012-11-17 04:43:00
5:48 AM,33.8,32.0,93,29.83,3.1,SSE,4.6,-,N/A,,Mist,150,2012-11-17 04:48:00
5:55 AM,33.8,32.0,93,29.83,3.1,SSE,4.6,-,N/A,,Mist,160,2012-11-17 04:55:00
6:00 AM,33.8,32.0,93,29.83,-9999.0,SSE,4.6,-,N/A,,Mist,150,2012-11-17 05:00:00
6:10 AM,33.8,33.8,100,29.83,3.1,SE,5.8,-,N/A,,Mist,140,2012-11-17 05:10:00
6:17 AM,35.6,33.8,93,29.83,-9999.0,SE,6.9,-,N/A,,Mist,140,2012-11-17 05:17:00
6:21 AM,33.8,33.8,100,29.83,3.1,SE,6.9,-,N/A,,Partly Cloudy,140,2012-11-17 05:21:00
6:25 AM,35.6,33.8,93,29.83,3.1,SE,6.9,-,N/A,,Scattered Clouds,140,2012-11-17 05:25:00
6:35 AM,35.6,33.8,93,29.83,3.1,SE,5.8,-,N/A,,Mostly Cloudy,140,2012-11-17 05:35:00
6:55 AM,35.6,33.8,93,29.83,3.1,SSE,4.6,-,N/A,,Mostly Cloudy,150,2012-11-17 05:55:00
7:25 AM,35.6,33.8,93,29.83,3.1,SE,5.8,-,N/A,,Mostly Cloudy,140,2012-11-17 06:25:00
7:55 AM,33.8,32.0,93,29.83,3.1,SSE,3.5,-,N/A,,Mist,160,2012-11-17 06:55:00
8:25 AM,33.8,33.8,100,29.83,3.1,SSE,3.5,-,N/A,,Mist,160,2012-11-17 07:25:00
8:55 AM,35.6,33.8,93,29.83,3.1,SSE,4.6,-,N/A,,Mist,160,2012-11-17 07:55:00
9:21 AM,35.6,33.8,93,29.83,5.0,South,6.9,-,N/A,,Mist,170,2012-11-17 08:21:00
9:25 AM,37.4,33.8,87,29.83,4.3,South,6.9,-,N/A,,Mist,170,2012-11-17 08:25:00
9:30 AM,37.4,33.8,87,29.83,5.0,South,6.9,-,N/A,,Mist,170,2012-11-17 08:30:00
9:43 AM,37.4,33.8,87,29.83,5.6,South,6.9,-,N/A,,Mist,170,2012-11-17 08:43:00
9:55 AM,39.2,35.6,87,29.83,6.2,South,6.9,-,N/A,,Unknown,170,2012-11-17 08:55:00
10:25 AM,39.2,35.6,87,29.83,6.2,South,8.1,-,N/A,,Partly Cloudy,180,2012-11-17 09:25:00
10:29 AM,39.2,35.6,87,29.83,6.2,South,9.2,-,N/A,,Mostly Cloudy,180,2012-11-17 09:29:00
10:55 AM,41.0,37.4,87,29.83,6.2,South,8.1,-,N/A,,Overcast,180,2012-11-17 09:55:00
11:25 AM,42.8,39.2,87,29.83,6.2,South,9.2,-,N/A,,Overcast,190,2012-11-17 10:25:00
11:55 AM,42.8,39.2,87,29.83,5.6,SSW,10.4,-,N/A,,Overcast,200,2012-11-17 10:55:00
12:25 PM,42.8,41.0,93,29.83,5.6,SSW,5.8,-,N/A,,Overcast,200,2012-11-17 11:25:00
12:55 PM,42.8,41.0,93,29.83,4.3,South,6.9,-,N/A,,Overcast,180,2012-11-17 11:55:00
1:15 PM,42.8,41.0,93,29.80,4.3,South,8.1,-,N/A,,Overcast,190,2012-11-17 12:15:00
1:18 PM,42.8,41.0,93,29.80,4.3,South,8.1,-,N/A,,Overcast,190,2012-11-17 12:18:00
1:25 PM,42.8,41.0,93,29.80,3.7,South,9.2,-,N/A,,Overcast,180,2012-11-17 12:25:00
1:29 PM,42.8,41.0,93,29.80,-9999.0,South,8.1,-,N/A,,Overcast,190,2012-11-17 12:29:00
1:42 PM,42.8,41.0,93,29.80,3.1,South,8.1,-,N/A,,Overcast,180,2012-11-17 12:42:00
1:55 PM,44.6,41.0,87,29.80,2.5,South,8.1,-,N/A,,Overcast,180,2012-11-17 12:55:00
2:05 PM,44.6,42.8,93,29.80,-9999.0,South,8.1,-,N/A,,Mostly Cloudy,170,2012-11-17 13:05:00
2:25 PM,44.6,42.8,93,29.80,3.1,South,9.2,-,N/A,,Overcast,170,2012-11-17 13:25:00
2:36 PM,44.6,42.8,93,29.80,3.1,South,5.8,-,N/A,,Overcast,170,2012-11-17 13:36:00
2:48 PM,44.6,42.8,93,29.80,-9999.0,South,8.1,-,N/A,,Overcast,170,2012-11-17 13:48:00
2:55 PM,44.6,42.8,93,29.80,-9999.0,South,8.1,-,N/A,,Overcast,180,2012-11-17 13:55:00
3:01 PM,44.6,42.8,93,29.80,-9999.0,South,8.1,-,N/A,,Mostly Cloudy,170,2012-11-17 14:01:00
3:25 PM,44.6,42.8,93,29.80,-9999.0,SSE,8.1,-,N/A,,Mostly Cloudy,150,2012-11-17 14:25:00
3:29 PM,44.6,42.8,93,29.80,-9999.0,SSE,6.9,-,N/A,,Mostly Cloudy,150,2012-11-17 14:29:00
3:30 PM,44.6,42.8,93,29.80,-9999.0,SSE,6.9,-,N/A,,Mostly Cloudy,160,2012-11-17 14:30:00
3:48 PM,44.6,42.8,93,29.80,2.5,SSE,6.9,-,N/A,,Overcast,160,2012-11-17 14:48:00
3:55 PM,44.6,42.8,93,29.80,-9999.0,SSE,6.9,-,N/A,,Overcast,160,2012-11-17 14:55:00
4:25 PM,44.6,42.8,93,29.80,1.3,SSE,5.8,-,N/A,,Overcast,160,2012-11-17 15:25:00
4:33 PM,44.6,42.8,93,29.80,1.2,SSE,5.8,-,N/A,,Overcast,160,2012-11-17 15:33:00
4:41 PM,44.6,42.8,93,29.80,1.3,SSE,5.8,-,N/A,,Overcast,160,2012-11-17 15:41:00
4:55 PM,44.6,44.6,100,29.80,1.3,SSE,5.8,-,N/A,,Overcast,160,2012-11-17 15:55:00
5:09 PM,44.6,44.6,100,29.80,1.6,South,4.6,-,N/A,,Overcast,170,2012-11-17 16:09:00
5:13 PM,44.6,44.6,100,29.80,1.5,South,4.6,-,N/A,,Overcast,180,2012-11-17 16:13:00
5:21 PM,44.6,44.6,100,29.80,1.5,South,4.6,-,N/A,,Mostly Cloudy,190,2012-11-17 16:21:00
5:25 PM,44.6,44.6,100,29.80,1.4,South,4.6,-,N/A,,Mostly Cloudy,190,2012-11-17 16:25:00
5:29 PM,44.6,44.6,100,29.80,1.4,South,4.6,-,N/A,,Overcast,190,2012-11-17 16:29:00
5:33 PM,44.6,44.6,100,29.80,1.4,South,4.6,-,N/A,,Overcast,190,2012-11-17 16:33:00
5:42 PM,44.6,44.6,100,29.80,1.4,South,4.6,-,N/A,,Overcast,190,2012-11-17 16:42:00
5:48 PM,44.6,44.6,100,29.80,1.4,South,4.6,-,N/A,,Overcast,190,2012-11-17 16:48:00
5:55 PM,44.6,44.6,100,29.80,1.3,South,4.6,-,N/A,,Overcast,190,2012-11-17 16:55:00
5:59 PM,44.6,44.6,100,29.80,1.3,South,4.6,-,N/A,,Overcast,190,2012-11-17 16:59:00
6:25 PM,46.4,44.6,93,29.80,1.4,South,4.6,-,N/A,,Overcast,190,2012-11-17 17:25:00
6:55 PM,46.4,44.6,93,29.80,-9999.0,South,5.8,-,N/A,,Overcast,180,2012-11-17 17:55:00
7:09 PM,46.4,44.6,93,29.80,2.8,SSW,6.9,-,N/A,,Overcast,200,2012-11-17 18:09:00
7:17 PM,46.4,44.6,93,29.80,-9999.0,SSW,6.9,-,N/A,,Overcast,200,2012-11-17 18:17:00
7:25 PM,46.4,44.6,93,29.80,3.1,SSW,6.9,-,N/A,,Overcast,210,2012-11-17 18:25:00
7:38 PM,46.4,44.6,93,29.80,3.1,SSW,5.8,-,N/A,,Overcast,200,2012-11-17 18:38:00
7:55 PM,46.4,44.6,93,29.80,3.7,SSW,6.9,-,N/A,,Overcast,210,2012-11-17 18:55:00
8:19 PM,46.4,44.6,93,29.80,3.7,SSW,6.9,-,N/A,,Mostly Cloudy,200,2012-11-17 19:19:00
8:25 PM,46.4,44.6,93,29.80,4.3,SSW,6.9,-,N/A,,Overcast,200,2012-11-17 19:25:00
8:55 PM,46.4,44.6,93,29.80,4.3,South,5.8,-,N/A,,Overcast,190,2012-11-17 19:55:00
8:59 PM,46.4,44.6,93,29.80,4.3,South,5.8,-,N/A,,Overcast,190,2012-11-17 19:59:00
9:03 PM,46.4,44.6,93,29.80,4.3,South,5.8,-,N/A,,Overcast,190,2012-11-17 20:03:00
9:12 PM,46.4,44.6,93,29.80,4.3,South,8.1,-,N/A,,Overcast,180,2012-11-17 20:12:00
9:17 PM,46.4,44.6,93,29.80,4.3,South,8.1,-,N/A,,Overcast,190,2012-11-17 20:17:00
9:25 PM,46.4,44.6,93,29.80,5.0,SSW,6.9,-,N/A,,Overcast,200,2012-11-17 20:25:00
9:45 PM,46.4,44.6,93,29.80,5.0,SSW,6.9,-,N/A,,Overcast,200,2012-11-17 20:45:00
9:50 PM,46.4,44.6,93,29.80,4.3,SSW,6.9,-,N/A,,Overcast,210,2012-11-17 20:50:00
9:55 PM,46.4,44.6,93,29.80,5.0,SSW,6.9,-,N/A,,Overcast,210,2012-11-17 20:55:00
10:25 PM,46.4,44.6,93,29.80,4.3,SSW,8.1,-,N/A,,Overcast,210,2012-11-17 21:25:00
10:55 PM,46.4,44.6,93,29.80,4.3,SSW,8.1,-,N/A,,Overcast,210,2012-11-17 21:55:00
11:25 PM,46.4,46.4,100,29.80,4.3,SSW,8.1,-,N/A,,Overcast,200,2012-11-17 22:25:00
11:26 PM,46.4,46.4,100,29.80,4.3,SSW,8.1,-,N/A,,Overcast,210,2012-11-17 22:26:00
11:34 PM,46.4,46.4,100,29.80,3.7,SSW,8.1,-,N/A,,Overcast,210,2012-11-17 22:34:00
11:38 PM,46.4,46.4,100,29.80,3.7,SW,8.1,-,N/A,,Overcast,220,2012-11-17 22:38:00
11:55 PM,46.4,46.4,100,29.80,3.7,SW,8.1,-,N/A,,Overcast,220,2012-11-17 22:55:00